This is the latest recevied weather packets stored in our database for station/object IN3XSV. If no packets are shown the sender has not sent any weather packets the latest 10 day(s).
| Time | Temp. | Humidity | Pressure | Rain* | Wind** | Luminosity | Snow |
|---|---|---|---|---|---|---|---|
| 1777800826 | 19.44° C | 52% | 1012 hPa | 0 mm | - | - | - |
| 1777800526 | 19.44° C | 52% | 1012 hPa | 0 mm | - | - | - |
| 1777800226 | 18.89° C | 53% | 1012.2 hPa | 0 mm | - | - | - |
| 1777799926 | 18.33° C | 53% | 1012.1 hPa | 0 mm | - | - | - |
| 1777799626 | 18.33° C | 53% | 1012.2 hPa | 0 mm | - | - | - |
| 1777799326 | 17.78° C | 55% | 1012.3 hPa | 0 mm | - | - | - |
| 1777799026 | 17.22° C | 55% | 1012.4 hPa | 0 mm | - | - | - |
| 1777798726 | 17.22° C | 55% | 1012.5 hPa | 0 mm | - | - | - |
| 1777798426 | 16.67° C | 56% | 1012.5 hPa | 0 mm | - | - | - |
| 1777798126 | 16.11° C | 56% | 1012.6 hPa | 0 mm | - | - | - |
| 1777797826 | 16.67° C | 56% | 1012.6 hPa | 0 mm | - | - | - |
| 1777797526 | 16.67° C | 57% | 1012.6 hPa | 0 mm | - | - | - |
| 1777797226 | 16.67° C | 59% | 1012.6 hPa | 0 mm | - | - | - |
| 1777796926 | 16.11° C | 58% | 1012.7 hPa | 0 mm | - | - | - |
| 1777796626 | 16.11° C | 58% | 1012.8 hPa | 0 mm | - | - | - |
| 1777796326 | 16.11° C | 59% | 1012.9 hPa | 0 mm | - | - | - |
| 1777796026 | 16.11° C | 60% | 1013 hPa | 0 mm | - | - | - |
| 1777795726 | 15.56° C | 60% | 1012.9 hPa | 0 mm | - | - | - |
| 1777795426 | 15.56° C | 61% | 1012.9 hPa | 0 mm | - | - | - |
| 1777795126 | 15.56° C | 62% | 1013 hPa | 0 mm | - | - | - |
| 1777794826 | 15.56° C | 62% | 1013.1 hPa | 0 mm | - | - | - |
| 1777794526 | 15° C | 62% | 1013.1 hPa | 0 mm | - | - | - |
| 1777794226 | 15° C | 62% | 1013.1 hPa | 0 mm | - | - | - |
| 1777793926 | 15° C | 63% | 1013.1 hPa | 0 mm | - | - | - |
| 1777793665 | 14.44° C | 66% | 1013.3 hPa | 0 mm | - | - | - |
* Rain latest hour (hover to see other rain measurements)
** Current wind speed in m/s (hover to see current wind gust speed)